This demonstration page uses our WeatherBlox Daily Observations layout. Learn more.

36.17497, -115.13722

Hourly Observations for July 12, 2015

Temp ( °F °C ) Dew Point ( °F °C ) Humidity (%) Winds ( mph kmh ) Pressure ( in mb ) Visibility ( mi km ) Precip ( " mm )
12:53 am 00:53 Clear 82 28 39 4 21 21 SSW 3 6 29.85 1011 10 16.09344 0 0
1:53 am 01:53 Clear 81 27 39 4 23 23 Calm 29.85 1011 10 16.09344 0 0
2:53 am 02:53 Clear 79 26 37 3 23 23 ESE 5 7 29.83 1010 10 16.09344 0 0
3:53 am 03:53 Clear 79 26 37 3 23 23 Calm 29.85 1011 10 16.09344 0 0
4:53 am 04:53 Clear 75 24 39 4 27 27 Calm 29.88 1012 10 16.09344 0 0
5:53 am 05:53 Sunny 73 23 39 4 29 29 NE 3 6 29.88 1012 10 16.09344 0 0
6:53 am 06:53 Sunny 79 26 39 4 24 24 Calm 29.88 1012 10 16.09344 0 0
7:53 am 07:53 Sunny 81 27 41 5 24 24 Calm 29.88 1012 10 16.09344 0 0
8:53 am 08:53 Sunny 82 28 41 5 23 23 S 3 6 29.91 1013 10 16.09344 0 0
9:53 am 09:53 Sunny 84 29 43 6 23 23 N 3 6 29.88 1012 10 16.09344 0 0
10:53 am 10:53 Sunny 88 31 43 6 21 21 N 6 9 29.88 1012 10 16.09344 0 0
11:53 am 11:53 Sunny 91 33 39 4 16 16 SE 10 17 29.83 1010 10 16.09344 0 0
12:53 pm 12:53 Sunny 93 34 37 3 14 14 SSE 10 17 29.8 1009 10 16.09344 0 0
1:53 pm 13:53 Sunny 95 35 37 3 13 13 SSE 9 15 29.77 1008 10 16.09344 0 0
2:53 pm 14:53 Sunny 95 35 36 2 12 12 N 6 9 29.77 1008 10 16.09344 0 0
3:53 pm 15:53 Sunny 97 36 36 2 12 12 N 5 7 29.71 1006 10 16.09344 0 0
4:53 pm 16:53 Sunny 97 36 36 2 12 12 Calm 29.68 1005 10 16.09344 0 0
5:53 pm 17:53 Sunny 99 37 34 1 10 10 N 7 11 29.65 1004 10 16.09344 0 0
6:26 pm 18:26 Sunny 99 37 34 1 10 10 ENE 9 15 29.65 1004 10 16.09344 0 0
6:53 pm 18:53 Sunny 97 36 34 1 11 11 Calm 29.65 1004 10 16.09344 0 0
7:53 pm 19:53 Sunny 95 35 37 3 13 13 SW 10 17 29.71 1006 10 16.09344 0 0
8:53 pm 20:53 Clear 93 34 34 1 12 12 WSW 8 13 29.71 1006 10 16.09344 0 0
9:53 pm 21:53 Clear 91 33 30 -1 11 11 W 7 11 29.74 1007 10 16.09344 0 0
10:53 pm 22:53 Clear 88 31 34 1 15 15 S 6 9 29.77 1008 10 16.09344 0 0
11:53 pm 23:53 Clear 88 31 34 1 15 15 SSW 9 15 29.77 1008 10 16.09344 0 0

Powered by AerisWeather